Location: Waco, TX
(31.5480°N, 97.1670°W)
Time: 19:28:40
(UTC-05:00)

ISS - Pass Details

Date: 22 September 2018
Orbit: 403 x 408 km, 51.6° (Epoch: 26 September)

Event Time Altitude Azimuth Distance (km) Brightness Sun altitude
Rises 21:06:06 0° 261° (W) 2,323 1.2 -22.1°
Reaches altitude 10° 21:08:45 10° 284° (WNW) 1,465 0.1 -22.7°
Maximum altitude 21:10:54 16° 325° (NW) 1,152 -1.0 -23.1°
Enters shadow 21:12:32 12° 358° (N) 1,342 -1.0 -23.5°
Drops below altitude 10° 21:13:03 10° 6° (N) 1,468 - -23.6°
Sets 21:15:43 0° 29° (NNE) 2,330 - -24.1°
